TimeCDT,TemperatureF,Dew PointF,Humidity,Sea Level PressureIn,VisibilityMPH,Wind Direction,Wind SpeedMPH,Gust SpeedMPH,PrecipitationIn,Events,Conditions,WindDirDegrees,DateUTC
12:53 AM,59.0,55.0,87,30.19,10.0,South,4.6,-,N/A,,Clear,180,2013-03-30 05:53:00
1:53 AM,57.9,55.0,90,30.18,9.0,South,3.5,-,N/A,,Clear,170,2013-03-30 06:53:00
2:53 AM,57.0,55.0,93,30.16,8.0,Calm,Calm,-,N/A,,Clear,0,2013-03-30 07:53:00
3:53 AM,57.9,55.9,93,30.15,5.0,South,3.5,-,N/A,,Clear,180,2013-03-30 08:53:00
4:53 AM,57.9,55.9,93,30.13,5.0,SSE,4.6,-,N/A,,Clear,160,2013-03-30 09:53:00
5:53 AM,59.0,55.9,90,30.12,8.0,SSE,5.8,-,N/A,,Clear,160,2013-03-30 10:53:00
6:53 AM,60.1,57.0,90,30.14,8.0,SSE,4.6,-,N/A,,Clear,160,2013-03-30 11:53:00
7:53 AM,60.1,57.0,90,30.14,7.0,South,4.6,-,N/A,,Clear,170,2013-03-30 12:53:00
8:53 AM,63.0,57.9,84,30.18,9.0,SSW,4.6,-,N/A,,Clear,210,2013-03-30 13:53:00
9:53 AM,66.0,59.0,78,30.17,10.0,South,6.9,-,N/A,,Partly Cloudy,180,2013-03-30 14:53:00
10:53 AM,69.1,59.0,70,30.18,10.0,South,8.1,-,N/A,,Mostly Cloudy,190,2013-03-30 15:53:00
11:37 AM,71.6,57.2,60,30.17,10.0,SSW,11.5,-,N/A,,Overcast,200,2013-03-30 16:37:00
11:48 AM,71.6,57.2,60,30.16,10.0,SSW,11.5,-,N/A,,Mostly Cloudy,200,2013-03-30 16:48:00
11:53 AM,72.0,57.9,61,30.16,10.0,South,12.7,-,N/A,,Mostly Cloudy,170,2013-03-30 16:53:00
12:08 PM,73.4,57.2,57,30.15,10.0,South,12.7,-,N/A,,Scattered Clouds,190,2013-03-30 17:08:00
12:53 PM,71.1,57.0,61,30.12,10.0,South,11.5,-,N/A,,Mostly Cloudy,170,2013-03-30 17:53:00
1:53 PM,73.0,55.0,53,30.10,10.0,South,11.5,20.7,N/A,,Partly Cloudy,180,2013-03-30 18:53:00
2:53 PM,73.0,55.9,55,30.06,10.0,South,13.8,20.7,N/A,,Partly Cloudy,170,2013-03-30 19:53:00
3:53 PM,72.0,55.9,57,30.06,10.0,South,10.4,-,N/A,,Mostly Cloudy,180,2013-03-30 20:53:00
4:53 PM,72.0,55.9,57,30.06,10.0,South,11.5,-,N/A,,Mostly Cloudy,190,2013-03-30 21:53:00
5:53 PM,70.0,57.0,63,30.06,10.0,SSW,13.8,-,N/A,,Overcast,200,2013-03-30 22:53:00
6:53 PM,69.1,57.9,68,30.05,10.0,South,10.4,-,N/A,,Overcast,190,2013-03-30 23:53:00
7:53 PM,68.0,57.9,70,30.04,10.0,South,8.1,-,N/A,,Overcast,180,2013-03-31 00:53:00
8:53 PM,64.9,59.0,81,30.05,10.0,SSW,8.1,-,N/A,,Clear,200,2013-03-31 01:53:00
9:53 PM,64.0,60.1,87,30.05,10.0,South,3.5,-,N/A,,Clear,170,2013-03-31 02:53:00
10:53 PM,63.0,60.1,90,30.06,10.0,South,4.6,-,N/A,,Clear,180,2013-03-31 03:53:00
11:53 PM,62.1,60.1,93,30.05,8.0,South,3.5,-,N/A,,Clear,170,2013-03-31 04:53:00